ENGINEERING TRACK TESTING
Weather & Rail Temperature Monitoring
Weather station HUDSON
Hudson Passenger Sta. (Hudson NY)
Measurement History
![]() ENGINEERING TRACK TESTING Weather station HUDSON Hudson Passenger Sta. (Hudson NY) Measurement History ![]() |
Conditions for past 24 hours (since 09/01/2026 01:31 AM)
| Time | Track 1 E Rail | Track 1 W rail | Track 2 E rail | Track 2 W rail | Outside Air Temperature |
Solar Radiation |
Max. Wind | Humidity | Air Pressure | Rain | |
| Speed | Dir | ||||||||||
| 09/02/2026 01:15 AM | 86 °F | 86 °F | 86 °F | 86 °F | 65.8 °F | 0 watt/m2 | 0 mph | --- | 88 % | 31.079 in Hg | 0 in |
| 09/02/2026 01:00 AM | 87 °F | 86 °F | 86 °F | 86 °F | 66 °F | 0 watt/m2 | 0 mph | --- | 88 % | 31.07 in Hg | 0 in |
| 09/02/2026 12:45 AM | 86 °F | 86 °F | 86 °F | 87 °F | 65.9 °F | 0 watt/m2 | 1 mph | SW | 88 % | 31.068 in Hg | 0 in |
| 09/02/2026 12:30 AM | 87 °F | 86 °F | 86 °F | 87 °F | 65.9 °F | 0 watt/m2 | 0 mph | --- | 87 % | 31.066 in Hg | 0 in |
| 09/02/2026 12:15 AM | 87 °F | 86 °F | 86 °F | 87 °F | 65.9 °F | 0 watt/m2 | 0 mph | --- | 87 % | 31.063 in Hg | 0 in |
| 09/02/2026 12:00 AM | 87 °F | 86 °F | 86 °F | 87 °F | 65.9 °F | 0 watt/m2 | 1 mph | WSW | 87 % | 31.057 in Hg | 0 in |
| 09/01/2026 11:45 PM | 87 °F | 86 °F | 86 °F | 87 °F | 66.1 °F | 0 watt/m2 | 1 mph | WSW | 87 % | 31.044 in Hg | 0 in |
| 09/01/2026 11:30 PM | 87 °F | 86 °F | 86 °F | 87 °F | 66.4 °F | 0 watt/m2 | 0 mph | --- | 87 % | 31.042 in Hg | 0 in |
| 09/01/2026 11:15 PM | 87 °F | 86 °F | 87 °F | 87 °F | 66.4 °F | 0 watt/m2 | 0 mph | --- | 88 % | 31.049 in Hg | 0 in |
| 09/01/2026 11:00 PM | 87 °F | 86 °F | 87 °F | 87 °F | 66.6 °F | 0 watt/m2 | 0 mph | --- | 88 % | 31.038 in Hg | 0 in |
| 09/01/2026 10:45 PM | 88 °F | 86 °F | 87 °F | 87 °F | 66.6 °F | 0 watt/m2 | 1 mph | SW | 87 % | 31.031 in Hg | 0 in |
| 09/01/2026 10:30 PM | 88 °F | 87 °F | 87 °F | 87 °F | 66.8 °F | 0 watt/m2 | 1 mph | SSW | 87 % | 31.03 in Hg | 0 in |
| 09/01/2026 10:15 PM | 88 °F | 87 °F | 87 °F | 88 °F | 67.4 °F | 0 watt/m2 | 0 mph | --- | 89 % | 31.034 in Hg | 0 in |
| 09/01/2026 10:00 PM | 89 °F | 88 °F | 87 °F | 88 °F | 67.4 °F | 0 watt/m2 | 1 mph | SSW | 89 % | 31.03 in Hg | 0 in |
| 09/01/2026 09:45 PM | 88 °F | 87 °F | 87 °F | 87 °F | 67.6 °F | 0 watt/m2 | 1 mph | SW | 89 % | 31.03 in Hg | 0 in |
| 09/01/2026 09:30 PM | 88 °F | 87 °F | 87 °F | 87 °F | 68 °F | 0 watt/m2 | 1 mph | SW | 90 % | 31.026 in Hg | 0 in |
| 09/01/2026 09:15 PM | 88 °F | 87 °F | 87 °F | 87 °F | 68 °F | 0 watt/m2 | 0 mph | --- | 90 % | 31.019 in Hg | 0 in |
| 09/01/2026 09:00 PM | 89 °F | 88 °F | 87 °F | 88 °F | 68.3 °F | 0 watt/m2 | 0 mph | --- | 90 % | 31.012 in Hg | 0 in |
| 09/01/2026 08:45 PM | 90 °F | 89 °F | 88 °F | 88 °F | 68.7 °F | 0 watt/m2 | 0 mph | --- | 90 % | 31 in Hg | 0 in |
| 09/01/2026 08:30 PM | 91 °F | 90 °F | 89 °F | 89 °F | 68.8 °F | 0 watt/m2 | 0 mph | --- | 91 % | 30.991 in Hg | 0 in |
| 09/01/2026 08:15 PM | 91 °F | 90 °F | 89 °F | 90 °F | 69 °F | 0 watt/m2 | 1 mph | SW | 91 % | 30.985 in Hg | 0 in |
| 09/01/2026 08:00 PM | 91 °F | 90 °F | 90 °F | 90 °F | 69.2 °F | 0 watt/m2 | 1 mph | WSW | 91 % | 30.978 in Hg | 0 in |
| 09/01/2026 07:45 PM | 91 °F | 89 °F | 81 °F | 86 °F | 69.5 °F | 0 watt/m2 | 1 mph | WSW | 91 % | 30.975 in Hg | 0 in |
| 09/01/2026 07:30 PM | 92 °F | 91 °F | 90 °F | 91 °F | 69.9 °F | 0 watt/m2 | 0 mph | --- | 92 % | 30.979 in Hg | 0 in |
| 09/01/2026 07:15 PM | 83 °F | 86 °F | 79 °F | 81 °F | 70.8 °F | 0 watt/m2 | 0 mph | --- | 92 % | 30.979 in Hg | 0 in |
| 09/01/2026 07:00 PM | 93 °F | 92 °F | 91 °F | 92 °F | 71.3 °F | 3 watt/m2 | 0 mph | --- | 92 % | 30.971 in Hg | 0 in |
| 09/01/2026 06:45 PM | 92 °F | 91 °F | 91 °F | 92 °F | 71.7 °F | 5 watt/m2 | 0 mph | --- | 92 % | 30.974 in Hg | 0 in |
| 09/01/2026 06:30 PM | 93 °F | 92 °F | 92 °F | 92 °F | 72.1 °F | 18 watt/m2 | 0 mph | --- | 93 % | 30.971 in Hg | 0 in |
| 09/01/2026 06:15 PM | 93 °F | 92 °F | 92 °F | 93 °F | 72.1 °F | 25 watt/m2 | 0 mph | --- | 93 % | 30.967 in Hg | 0 in |
| 09/01/2026 06:00 PM | 93 °F | 92 °F | 92 °F | 93 °F | 72 °F | 33 watt/m2 | 0 mph | --- | 92 % | 30.961 in Hg | 0 in |
| 09/01/2026 05:45 PM | 93 °F | 93 °F | 92 °F | 93 °F | 72.1 °F | 54 watt/m2 | 0 mph | --- | 93 % | 30.958 in Hg | 0 in |
| 09/01/2026 05:30 PM | 93 °F | 92 °F | 92 °F | 93 °F | 72 °F | 58 watt/m2 | 0 mph | --- | 92 % | 30.955 in Hg | 0.01 in |
| 09/01/2026 05:15 PM | 93 °F | 92 °F | 92 °F | 93 °F | 71.8 °F | 59 watt/m2 | 0 mph | --- | 92 % | 30.955 in Hg | 0 in |
| 09/01/2026 05:00 PM | 93 °F | 93 °F | 92 °F | 93 °F | 72.1 °F | 43 watt/m2 | 0 mph | --- | 92 % | 30.955 in Hg | 0 in |
| 09/01/2026 04:45 PM | 93 °F | 92 °F | 92 °F | 93 °F | 71.9 °F | 38 watt/m2 | 0 mph | --- | 92 % | 30.952 in Hg | 0 in |
| 09/01/2026 04:30 PM | 93 °F | 93 °F | 92 °F | 93 °F | 71.9 °F | 35 watt/m2 | 0 mph | --- | 92 % | 30.948 in Hg | 0.01 in |
| 09/01/2026 04:15 PM | 93 °F | 93 °F | 93 °F | 93 °F | 71.9 °F | 58 watt/m2 | 0 mph | --- | 91 % | 30.949 in Hg | 0.01 in |
| 09/01/2026 04:00 PM | 94 °F | 93 °F | 93 °F | 93 °F | 72.1 °F | 36 watt/m2 | 0 mph | --- | 91 % | 30.946 in Hg | 0 in |
| 09/01/2026 03:45 PM | 94 °F | 93 °F | 93 °F | 94 °F | 72.2 °F | 47 watt/m2 | 0 mph | --- | 91 % | 30.944 in Hg | 0.02 in |
| 09/01/2026 03:30 PM | 95 °F | 94 °F | 94 °F | 94 °F | 72.2 °F | 35 watt/m2 | 0 mph | --- | 91 % | 30.94 in Hg | 0 in |
| 09/01/2026 03:15 PM | 95 °F | 94 °F | 94 °F | 94 °F | 72.3 °F | 27 watt/m2 | 0 mph | --- | 91 % | 30.941 in Hg | 0 in |
| 09/01/2026 03:00 PM | 96 °F | 95 °F | 94 °F | 95 °F | 72.7 °F | 44 watt/m2 | 0 mph | --- | 91 % | 30.937 in Hg | 0 in |
| 09/01/2026 02:45 PM | 96 °F | 95 °F | 95 °F | 95 °F | 73.1 °F | 47 watt/m2 | 0 mph | --- | 90 % | 30.936 in Hg | 0 in |
| 09/01/2026 02:30 PM | 97 °F | 96 °F | 95 °F | 95 °F | 73.3 °F | 52 watt/m2 | 1 mph | SSW | 90 % | 30.936 in Hg | 0 in |
| 09/01/2026 02:15 PM | 97 °F | 96 °F | 95 °F | 96 °F | 73.7 °F | 44 watt/m2 | 1 mph | SSW | 90 % | 30.938 in Hg | 0 in |
| 09/01/2026 02:00 PM | 97 °F | 97 °F | 96 °F | 96 °F | 73.8 °F | 60 watt/m2 | 1 mph | SSW | 90 % | 30.934 in Hg | 0 in |
| 09/01/2026 01:45 PM | 97 °F | 96 °F | 96 °F | 96 °F | 74 °F | 101 watt/m2 | 1 mph | SW | 90 % | 30.927 in Hg | 0 in |
| 09/01/2026 01:30 PM | 97 °F | 96 °F | 96 °F | 96 °F | 74.1 °F | 176 watt/m2 | 0 mph | --- | 90 % | 30.925 in Hg | 0 in |
| 09/01/2026 01:15 PM | 96 °F | 96 °F | 95 °F | 96 °F | 73.6 °F | 129 watt/m2 | 0 mph | --- | 91 % | 30.924 in Hg | 0 in |
| 09/01/2026 01:00 PM | 96 °F | 95 °F | 95 °F | 96 °F | 73.6 °F | 75 watt/m2 | 0 mph | --- | 91 % | 30.927 in Hg | 0 in |
| 09/01/2026 12:45 PM | 96 °F | 96 °F | 95 °F | 96 °F | 73.7 °F | 107 watt/m2 | 0 mph | --- | 91 % | 30.922 in Hg | 0 in |
| 09/01/2026 12:30 PM | 96 °F | 95 °F | 95 °F | 96 °F | 73.1 °F | 128 watt/m2 | 0 mph | --- | 91 % | 30.928 in Hg | 0 in |
| 09/01/2026 12:15 PM | 96 °F | 95 °F | 95 °F | 96 °F | 73 °F | 108 watt/m2 | 1 mph | N | 92 % | 30.933 in Hg | 0 in |
| 09/01/2026 12:00 PM | 96 °F | 95 °F | 95 °F | 95 °F | 72.6 °F | 215 watt/m2 | 1 mph | NW | 92 % | 30.939 in Hg | 0 in |
| 09/01/2026 11:45 AM | 95 °F | 95 °F | 95 °F | 95 °F | 72.4 °F | 124 watt/m2 | 1 mph | NNW | 92 % | 30.941 in Hg | 0 in |
| 09/01/2026 11:30 AM | 95 °F | 95 °F | 94 °F | 95 °F | 72.2 °F | 161 watt/m2 | 0 mph | --- | 93 % | 30.944 in Hg | 0 in |
| 09/01/2026 11:15 AM | 95 °F | 95 °F | 94 °F | 94 °F | 71.9 °F | 97 watt/m2 | 0 mph | --- | 93 % | 30.944 in Hg | 0 in |
| 09/01/2026 11:00 AM | 95 °F | 95 °F | 94 °F | 94 °F | 71.9 °F | 177 watt/m2 | 0 mph | --- | 93 % | 30.944 in Hg | 0 in |
| 09/01/2026 10:45 AM | 95 °F | 94 °F | 94 °F | 94 °F | 71.6 °F | 216 watt/m2 | 1 mph | NNW | 93 % | 30.946 in Hg | 0 in |
| 09/01/2026 10:30 AM | 94 °F | 93 °F | 93 °F | 93 °F | 71.4 °F | 171 watt/m2 | 0 mph | --- | 93 % | 30.944 in Hg | 0 in |
| 09/01/2026 10:15 AM | 93 °F | 93 °F | 93 °F | 93 °F | 71.3 °F | 186 watt/m2 | 0 mph | --- | 93 % | 30.942 in Hg | 0 in |
| 09/01/2026 10:00 AM | 93 °F | 92 °F | 92 °F | 93 °F | 71.2 °F | 171 watt/m2 | 0 mph | --- | 93 % | 30.948 in Hg | 0 in |
| 09/01/2026 09:45 AM | 92 °F | 91 °F | 91 °F | 92 °F | 71 °F | 208 watt/m2 | 0 mph | --- | 93 % | 30.954 in Hg | 0 in |
| 09/01/2026 09:30 AM | 91 °F | 90 °F | 90 °F | 91 °F | 70.6 °F | 111 watt/m2 | 0 mph | --- | 93 % | 30.96 in Hg | 0 in |
| 09/01/2026 09:15 AM | 90 °F | 89 °F | 89 °F | 90 °F | 70.1 °F | 63 watt/m2 | 0 mph | --- | 93 % | 30.968 in Hg | 0 in |
| 09/01/2026 09:00 AM | 90 °F | 89 °F | 89 °F | 90 °F | 70 °F | 48 watt/m2 | 0 mph | --- | 93 % | 30.967 in Hg | 0 in |
| 09/01/2026 08:45 AM | 89 °F | 89 °F | 89 °F | 89 °F | 69.9 °F | 40 watt/m2 | 0 mph | --- | 93 % | 30.964 in Hg | 0 in |
| 09/01/2026 08:30 AM | 89 °F | 89 °F | 89 °F | 89 °F | 69.8 °F | 35 watt/m2 | 0 mph | --- | 93 % | 30.965 in Hg | 0.01 in |
| 09/01/2026 08:15 AM | 89 °F | 88 °F | 88 °F | 89 °F | 69.6 °F | 16 watt/m2 | 0 mph | --- | 93 % | 30.968 in Hg | 0.03 in |
| 09/01/2026 08:00 AM | 89 °F | 88 °F | 88 °F | 89 °F | 69.5 °F | 10 watt/m2 | 0 mph | --- | 93 % | 30.971 in Hg | 0.03 in |
| 09/01/2026 07:45 AM | 89 °F | 88 °F | 88 °F | 89 °F | 69.5 °F | 19 watt/m2 | 0 mph | --- | 93 % | 30.972 in Hg | 0 in |
| 09/01/2026 07:30 AM | 89 °F | 88 °F | 88 °F | 89 °F | 69.4 °F | 13 watt/m2 | 0 mph | --- | 93 % | 30.961 in Hg | 0 in |
| 09/01/2026 07:15 AM | 89 °F | 88 °F | 88 °F | 89 °F | 69.3 °F | 13 watt/m2 | 0 mph | --- | 93 % | 30.959 in Hg | 0.02 in |
| 09/01/2026 07:00 AM | 89 °F | 88 °F | 88 °F | 89 °F | 69.2 °F | 1 watt/m2 | 0 mph | --- | 92 % | 30.958 in Hg | 0.01 in |
| 09/01/2026 06:45 AM | 89 °F | 88 °F | 88 °F | 89 °F | 69.1 °F | 0 watt/m2 | 0 mph | --- | 92 % | 30.956 in Hg | 0.03 in |
| 09/01/2026 06:30 AM | 89 °F | 88 °F | 88 °F | 89 °F | 69.1 °F | 0 watt/m2 | 0 mph | --- | 92 % | 30.953 in Hg | 0.02 in |
| 09/01/2026 06:15 AM | 88 °F | 88 °F | 88 °F | 89 °F | 69.1 °F | 0 watt/m2 | 0 mph | --- | 92 % | 30.953 in Hg | 0.02 in |
| 09/01/2026 06:00 AM | 89 °F | 88 °F | 88 °F | 89 °F | 69.1 °F | 0 watt/m2 | 0 mph | --- | 92 % | 30.94 in Hg | 0 in |
| 09/01/2026 05:45 AM | 89 °F | 88 °F | 88 °F | 89 °F | 69.2 °F | 0 watt/m2 | 0 mph | --- | 92 % | 30.942 in Hg | 0.01 in |
| 09/01/2026 05:30 AM | 89 °F | 88 °F | 88 °F | 89 °F | 69.3 °F | 0 watt/m2 | 0 mph | --- | 92 % | 30.949 in Hg | 0.06 in |
| 09/01/2026 05:15 AM | 89 °F | 88 °F | 89 °F | 89 °F | 69.3 °F | 0 watt/m2 | 0 mph | --- | 92 % | 30.948 in Hg | 0.07 in |
| 09/01/2026 05:00 AM | 89 °F | 89 °F | 89 °F | 89 °F | 69.5 °F | 0 watt/m2 | 0 mph | --- | 91 % | 30.958 in Hg | 0.14 in |
| 09/01/2026 04:45 AM | 90 °F | 89 °F | 89 °F | 90 °F | 69.6 °F | 0 watt/m2 | 0 mph | --- | 91 % | 30.955 in Hg | 0.16 in |
| 09/01/2026 04:30 AM | 91 °F | 90 °F | 89 °F | 90 °F | 69.7 °F | 0 watt/m2 | 0 mph | --- | 91 % | 30.964 in Hg | 0.02 in |
| 09/01/2026 04:15 AM | 91 °F | 90 °F | 90 °F | 90 °F | 69.6 °F | 0 watt/m2 | 0 mph | --- | 91 % | 30.963 in Hg | 0 in |
| 09/01/2026 04:00 AM | 90 °F | 90 °F | 90 °F | 90 °F | 69.5 °F | 0 watt/m2 | 0 mph | --- | 91 % | 30.967 in Hg | 0 in |
| 09/01/2026 03:45 AM | 90 °F | 89 °F | 90 °F | 90 °F | 69.4 °F | 0 watt/m2 | 0 mph | --- | 91 % | 30.975 in Hg | 0 in |
| 09/01/2026 03:30 AM | 90 °F | 89 °F | 90 °F | 90 °F | 69.4 °F | 0 watt/m2 | 0 mph | --- | 90 % | 30.978 in Hg | 0 in |
| 09/01/2026 03:15 AM | 90 °F | 89 °F | 90 °F | 90 °F | 69.4 °F | 0 watt/m2 | 0 mph | --- | 90 % | 30.98 in Hg | 0 in |
| 09/01/2026 03:00 AM | 90 °F | 89 °F | 90 °F | 90 °F | 69.4 °F | 0 watt/m2 | 0 mph | --- | 90 % | 30.981 in Hg | 0 in |
| 09/01/2026 02:45 AM | 90 °F | 89 °F | 90 °F | 90 °F | 69.5 °F | 0 watt/m2 | 0 mph | --- | 90 % | 30.979 in Hg | 0 in |
| 09/01/2026 02:30 AM | 90 °F | 89 °F | 90 °F | 90 °F | 69.5 °F | 0 watt/m2 | 0 mph | --- | 90 % | 30.98 in Hg | 0 in |
| 09/01/2026 02:15 AM | 90 °F | 89 °F | 90 °F | 90 °F | 69.4 °F | 0 watt/m2 | 0 mph | --- | 90 % | 31.001 in Hg | 0 in |
| 09/01/2026 02:00 AM | 90 °F | 89 °F | 90 °F | 90 °F | 69.3 °F | 0 watt/m2 | 0 mph | --- | 90 % | 31.006 in Hg | 0 in |
| 09/01/2026 01:45 AM | 90 °F | 89 °F | 90 °F | 91 °F | 69.3 °F | 0 watt/m2 | 0 mph | --- | 90 % | 31 in Hg | 0 in |